Location: Chiroubles
(46.1812°N, 4.6660°E)
Time: 01:48:02
(UTC+00:00)

Cosmos 1503 Rocket - Pass Details

Date: 15 August 2020
Orbit: 753 x 790 km, 74.0° (Epoch: 27 September)

Event Time Altitude Azimuth Distance (km) Brightness Sun altitude
Exits shadow 22:58:14 68° 321° (NW) 851 4.2 -29.2°
Drops below altitude 10° 23:03:16 10° 18° (NNE) 2,357 7.2 -29.4°
Sets 23:05:40 0° 21° (NNE) 3,286 8.1 -29.5°
